TimeEST,TemperatureF,Dew PointF,Humidity,Sea Level PressureIn,VisibilityMPH,Wind Direction,Wind SpeedMPH,Gust SpeedMPH,PrecipitationIn,Events,Conditions,WindDirDegrees,DateUTC
12:10 AM,32.0,19.4,60,29.92,10.0,West,6.9,16.1,N/A,,Clear,270,2012-11-26 05:10:00
12:35 AM,32.0,19.4,60,29.93,10.0,West,5.8,-,N/A,,Clear,260,2012-11-26 05:35:00
12:55 AM,32.0,19.4,60,29.93,10.0,West,9.2,-,N/A,,Clear,260,2012-11-26 05:55:00
1:15 AM,32.0,19.4,60,29.93,10.0,West,8.1,-,N/A,,Clear,260,2012-11-26 06:15:00
1:35 AM,32.0,21.2,64,29.94,10.0,West,9.2,-,N/A,,Clear,270,2012-11-26 06:35:00
2:00 AM,32.0,21.2,64,29.95,10.0,West,9.2,19.6,N/A,,Clear,280,2012-11-26 07:00:00
2:20 AM,32.0,21.2,64,29.96,10.0,West,9.2,-,N/A,,Mostly Cloudy,270,2012-11-26 07:20:00
2:40 AM,32.0,21.2,64,29.96,10.0,West,9.2,-,N/A,,Overcast,270,2012-11-26 07:40:00
3:00 AM,32.0,21.2,64,29.97,10.0,West,10.4,16.1,N/A,,Mostly Cloudy,260,2012-11-26 08:00:00
3:25 AM,32.0,23.0,69,29.96,10.0,West,9.2,-,N/A,,Overcast,280,2012-11-26 08:25:00
3:45 AM,32.0,23.0,69,29.97,10.0,West,6.9,-,N/A,,Overcast,270,2012-11-26 08:45:00
4:05 AM,32.0,23.0,69,29.97,10.0,West,6.9,-,N/A,,Mostly Cloudy,260,2012-11-26 09:05:00
4:30 AM,32.0,23.0,69,29.98,10.0,West,8.1,-,N/A,,Scattered Clouds,270,2012-11-26 09:30:00
4:50 AM,32.0,23.0,69,29.99,10.0,West,9.2,-,N/A,,Mostly Cloudy,270,2012-11-26 09:50:00
5:10 AM,32.0,23.0,69,29.99,10.0,West,5.8,-,N/A,,Overcast,270,2012-11-26 10:10:00
5:30 AM,32.0,23.0,69,30.00,10.0,West,5.8,-,N/A,,Overcast,280,2012-11-26 10:30:00
5:55 AM,32.0,23.0,69,30.01,10.0,West,6.9,-,N/A,,Overcast,270,2012-11-26 10:55:00
6:15 AM,32.0,23.0,69,30.01,10.0,West,8.1,-,N/A,,Overcast,280,2012-11-26 11:15:00
6:35 AM,32.0,23.0,69,30.02,10.0,West,8.1,-,N/A,,Overcast,270,2012-11-26 11:35:00
6:55 AM,32.0,23.0,69,30.03,10.0,West,6.9,-,N/A,,Overcast,260,2012-11-26 11:55:00
7:20 AM,30.2,24.8,80,30.04,10.0,West,8.1,-,N/A,,Scattered Clouds,270,2012-11-26 12:20:00
7:40 AM,32.0,24.8,75,30.04,10.0,West,8.1,-,N/A,,Clear,260,2012-11-26 12:40:00
8:00 AM,32.0,26.6,80,30.05,10.0,West,8.1,-,N/A,,Clear,260,2012-11-26 13:00:00
8:20 AM,32.0,26.6,80,30.06,10.0,West,8.1,-,N/A,,Clear,270,2012-11-26 13:20:00
8:45 AM,32.0,26.6,80,30.07,10.0,West,6.9,-,N/A,,Clear,270,2012-11-26 13:45:00
9:05 AM,32.0,26.6,80,30.07,10.0,West,8.1,-,N/A,,Clear,270,2012-11-26 14:05:00
9:25 AM,32.0,26.6,80,30.08,10.0,West,10.4,-,N/A,,Clear,280,2012-11-26 14:25:00
9:45 AM,33.8,26.6,75,30.08,10.0,West,10.4,-,N/A,,Clear,260,2012-11-26 14:45:00
10:10 AM,35.6,26.6,70,30.09,10.0,West,11.5,17.3,N/A,,Clear,260,2012-11-26 15:10:00
10:30 AM,35.6,26.6,70,30.10,10.0,WSW,10.4,-,N/A,,Clear,250,2012-11-26 15:30:00
10:50 AM,35.6,26.6,70,30.10,10.0,WSW,9.2,16.1,N/A,,Clear,250,2012-11-26 15:50:00
11:10 AM,37.4,26.6,65,30.10,10.0,WSW,11.5,18.4,N/A,,Clear,250,2012-11-26 16:10:00
11:35 AM,37.4,26.6,65,30.10,10.0,WSW,9.2,17.3,N/A,,Clear,250,2012-11-26 16:35:00
11:55 AM,37.4,26.6,65,30.10,10.0,WSW,10.4,18.4,N/A,,Clear,240,2012-11-26 16:55:00
12:15 PM,39.2,24.8,56,30.10,10.0,West,8.1,-,N/A,,Clear,260,2012-11-26 17:15:00
1:00 PM,41.0,23.0,49,30.10,10.0,WSW,10.4,-,N/A,,Clear,250,2012-11-26 18:00:00
1:20 PM,41.0,23.0,49,30.10,10.0,WSW,8.1,-,N/A,,Clear,250,2012-11-26 18:20:00
1:40 PM,41.0,23.0,49,30.09,10.0,WSW,10.4,17.3,N/A,,Clear,240,2012-11-26 18:40:00
2:00 PM,41.0,23.0,49,30.09,10.0,West,9.2,-,N/A,,Clear,260,2012-11-26 19:00:00
2:25 PM,42.8,21.2,42,30.08,10.0,West,9.2,-,N/A,,Clear,270,2012-11-26 19:25:00
2:45 PM,42.8,21.2,42,30.08,10.0,WSW,9.2,-,N/A,,Clear,250,2012-11-26 19:45:00
3:05 PM,42.8,23.0,46,30.08,10.0,West,8.1,-,N/A,,Clear,260,2012-11-26 20:05:00
3:25 PM,42.8,21.2,42,30.09,10.0,WSW,8.1,-,N/A,,Clear,250,2012-11-26 20:25:00
3:50 PM,41.0,21.2,45,30.10,10.0,West,5.8,-,N/A,,Clear,280,2012-11-26 20:50:00
4:10 PM,41.0,21.2,45,30.10,10.0,West,3.5,-,N/A,,Clear,260,2012-11-26 21:10:00
4:30 PM,41.0,21.2,45,30.10,10.0,West,4.6,-,N/A,,Clear,270,2012-11-26 21:30:00
4:50 PM,37.4,21.2,52,30.11,10.0,West,5.8,-,N/A,,Clear,270,2012-11-26 21:50:00
5:15 PM,37.4,21.2,52,30.11,10.0,WSW,3.5,-,N/A,,Clear,250,2012-11-26 22:15:00
5:35 PM,37.4,21.2,52,30.11,10.0,Calm,Calm,-,N/A,,Clear,0,2012-11-26 22:35:00
5:55 PM,35.6,21.2,56,30.11,10.0,West,3.5,-,N/A,,Clear,260,2012-11-26 22:55:00
6:15 PM,35.6,21.2,56,30.11,10.0,WSW,3.5,-,N/A,,Clear,240,2012-11-26 23:15:00
6:40 PM,37.4,21.2,52,30.12,10.0,SW,3.5,-,N/A,,Mostly Cloudy,230,2012-11-26 23:40:00
7:00 PM,35.6,21.2,56,30.12,10.0,SW,3.5,-,N/A,,Mostly Cloudy,220,2012-11-27 00:00:00
7:20 PM,37.4,23.0,56,30.12,10.0,SW,3.5,-,N/A,,Mostly Cloudy,230,2012-11-27 00:20:00
7:40 PM,37.4,23.0,56,30.12,10.0,WSW,3.5,-,N/A,,Overcast,240,2012-11-27 00:40:00
8:05 PM,37.4,23.0,56,30.13,10.0,WSW,3.5,-,N/A,,Overcast,250,2012-11-27 01:05:00
8:25 PM,37.4,23.0,56,30.13,10.0,West,3.5,-,N/A,,Overcast,260,2012-11-27 01:25:00
8:45 PM,37.4,23.0,56,30.13,10.0,SW,3.5,-,N/A,,Overcast,220,2012-11-27 01:45:00
9:05 PM,37.4,23.0,56,30.13,10.0,Calm,Calm,-,N/A,,Overcast,0,2012-11-27 02:05:00
9:30 PM,37.4,23.0,56,30.14,10.0,Calm,Calm,-,N/A,,Overcast,0,2012-11-27 02:30:00
9:50 PM,37.4,23.0,56,30.14,10.0,WSW,3.5,-,N/A,,Overcast,240,2012-11-27 02:50:00
10:10 PM,37.4,24.8,60,30.14,10.0,SW,6.9,-,N/A,,Overcast,220,2012-11-27 03:10:00
10:55 PM,35.6,28.4,75,30.13,10.0,South,6.9,-,N/A,,Overcast,190,2012-11-27 03:55:00
11:55 PM,35.6,30.2,81,30.12,10.0,South,4.6,-,N/A,,Overcast,170,2012-11-27 04:55:00